Regional Weather Roundup
Issued by NWS Newport/Morehead, NC

Current Version | Previous Version | Graphics & Text | Print | Product List | Glossary Off
Versions: 1 2 3 4 5 6 7 8 9 10 11 12 13 14 15 16 17 18 19 20 21 22 23 24 25 26 27 28 29 30 31 32 33 34 35 36 37 38 39 40 41 42 43 44 45 46 47 48 49 50

000
ASUS42 KMHX 010313
RWRMHX
WEATHER ROUNDUP FOR EASTERN NORTH CAROLINA
NATIONAL WEATHER SERVICE NEWPORT/MOREHEAD CITY NC
1100 PM EDT TUE JUN 30 2015

NOTE: "FAIR" INDICATES FEW OR NO CLOUDS BELOW 12,000 FEET
WITH NO SIGNIFICANT WEATHER AND/OR OBSTRUCTIONS TO VISIBILITY

NCZ015>017-031-032-045>047-102-103-010400-
NORTH COAST

CITY           SKY/WX    TMP DP  RH WIND       PRES   REMARKS
EDENTON          N/A     81  69  67 SW12      29.93R
ELIZABETH CITY HAZE      79  68  69 SW13      29.92R VSB 1
KITTY HAWK     CLEAR     80  69  68 SW10      29.93S
MANTEO         CLEAR     80  71  72 SW16      29.94S

$$

NCZ045>047-081-094-103-104-010400-
CENTRAL COAST

CITY           SKY/WX    TMP DP  RH WIND       PRES   REMARKS
FRISCO         PTCLDY    80  72  76 SW16G24   29.97S
SWANQUARTER      N/A     81 N/A N/A W9G24     29.91S

$$

NCZ095-097-098-100-101-010400-
SOUTHERN COAST

CITY           SKY/WX    TMP DP  RH WIND       PRES   REMARKS
BEAUFORT       MOCLDY    80  74  81 SW17G25   29.97S
CEDAR ISLAND     N/A     81 N/A N/A SW8G18    30.00S
JACKSONVILLE   CLOUDY    79  68  69 SW7       29.96S
PINEY ISLAND   PTCLDY   N/A N/A N/A SW14G22   29.96S
WILMINGTON     CLOUDY    80  73  79 SW8       29.96F


$$

NCZ011>013-027>030-043-044-078>080-089-090>093-098-010400-
COASTAL PLAIN

CITY           SKY/WX    TMP DP  RH WIND       PRES   REMARKS
AHOSKIE        LGT RAIN  68  67  96 N3        29.95F
CLINTON        CLOUDY    70  70  99 CALM      29.94F
ELIZABETHTOWN  MOCLDY    71  71  99 CALM      29.96S
GOLDSBORO      CLOUDY    72  69  92 SE9       29.92F
GREENVILLE     CLOUDY    79  64  61 SW14      29.96R
HAVELOCK       MOCLDY    80  71  74 SW13G23   29.97S
KENANSVILLE    CLOUDY    72  66  80 CALM      29.95F
KINSTON        CLOUDY    77  65  66 SW10      29.95S
NEW BERN       MOCLDY    79  68  69 SW8       29.97R
RICHLANDS      CLOUDY    79  63  57 SW10      29.96S
ROCKY MOUNT    CLOUDY    73  68  84 S9        29.92F
WASHINGTON     CLOUDY    80  68  67 SW9       29.94R
WHITEVILLE     CLOUDY    72  69  92 CALM      29.95F

$$

AMZ130-135-150-152-154-156-158-170-250-252-270-ANZ085-086-088-633-658-670-010400-
MARINE OBSERVATIONS

STATION/POSITION TIME  TEMP    WIND        PRES    WAVE   SWELL
                       AIR SEA DIR/SP/G            HT/PER HT/PER
                 (UTC) (F)     (DEG/KT/KT) (MB)    (FT/S) (FT/S)
CHESAPEAKE LIGHT 0300   79     220/ 15/ 16 1013.1
64 E VA BEACH    0250   78 76  200/ 16/ 19 1012.8    5/ 5   2/13
DUCK             0200   83 69  210/ 14/ 21 1012.1
2 E DUCK         0211      75                N/A     2/ 8
OREGON INLET     0200   82 84  200/ 20/ 24 1013.7
13E OREGON INLT  0300      73                N/A     4/ 5
HATTERAS CG      0200   81 83  220/ 12/ 21 1014.4
DIAMOND BUOY     0250   83 81  220/ 23/ 25 1014.5    5/ 5   2/ 8
CAPE LOOKOUT     0300   81     220/ 12/ 17 1014.8
BEAUFORT LAB     0200   81 81  220/ 12/ 16 1014.2
30 SE NEW RVR IN NOT AVBL
27 SE WRIGHTSVLE 0200      81  230/ 17/ 21   N/A
5 SE WRIGHTSVLE  0208   81 79  230/ 17/ 23 1014.7
225 S CAPE HAT   0250   81 80  220/ 16/ 19 1018.5    5/ 7   3/ 9
41 SE CHARLESTON 0250   81 83  230/ 16/ 16 1015.8    4/ 5   2/ 8

$$


USA.gov is the U.S. government's official web portal to all federal, state and local government web resources and services.